Location: Bakhuizen
(52.8696°N, 5.4575°E)
Time: 14:53:19
(UTC+00:00)

Cosmos 1833 - Visible Passes

Search period start: 26 September 2021 00:00
Search period end: 06 October 2021 00:00
Orbit: 835 x 864 km, 70.9° (Epoch: 26 September)

Date Brightness Start Highest point End Pass type
(mag) Time Alt. Az. Time Alt. Az. Time Alt. Az.
26 Sep 4.6 19:13:23 10° NW 19:18:57 61° WSW 19:24:02 12° SSE visible
26 Sep 6.8 21:00:18 10° WNW 21:02:00 11° W 21:03:42 10° WSW visible
27 Sep 4.6 19:00:40 10° NW 19:06:13 61° WSW 19:11:44 10° SSE visible
27 Sep 6.8 20:47:31 10° WNW 20:49:17 11° W 20:51:02 10° WSW visible
28 Sep 4.7 18:47:56 10° NW 18:53:30 62° WSW 18:59:00 10° SSE visible
28 Sep 6.9 20:34:44 10° WNW 20:36:34 12° W 20:38:23 10° WSW visible
29 Sep 4.7 18:35:12 10° NW 18:40:46 62° WSW 18:46:17 10° SSE visible
29 Sep 6.9 20:21:58 10° WNW 20:23:51 12° W 20:25:44 10° WSW visible
30 Sep 4.7 18:22:29 10° NW 18:28:03 62° WSW 18:33:34 10° SSE visible
30 Sep 7.0 20:09:12 10° WNW 20:11:08 12° W 20:13:04 10° WSW visible
01 Oct 4.7 18:09:45 10° NW 18:15:19 63° WSW 18:20:51 10° SSE visible
01 Oct 7.0 19:56:25 10° WNW 19:58:25 12° W 20:00:24 10° WSW visible
02 Oct 4.7 17:57:01 10° NW 18:02:36 63° WSW 18:08:08 10° SSE visible
02 Oct 7.0 19:43:39 10° WNW 19:45:41 12° W 19:47:45 10° WSW visible
03 Oct 4.7 17:44:18 10° NW 17:49:52 64° WSW 17:55:25 10° SSE visible
03 Oct 7.1 19:30:53 10° WNW 19:32:59 12° W 19:35:05 10° WSW visible
04 Oct 4.8 17:31:34 10° NW 17:37:09 64° WSW 17:42:41 10° SSE visible
04 Oct 7.1 19:18:07 10° WNW 19:20:16 12° W 19:22:25 10° WSW visible
05 Oct 7.2 19:05:21 10° WNW 19:07:34 12° W 19:09:45 10° WSW visible
